Tracking 19176 objects as of 26-May-2018
HD Live streaming from Space Station
objects crossing your sky now

FENGYUN 1C DEB

Track FENGYUN 1C DEB now!
10-day predictions


NORAD ID: 29845
Int'l Code: 1999-025EP
Perigee: 767.9 km
Apogee: 886.8 km
Inclination: 98.7 °
Period: 101.3 minutes
Semi major axis: 7198 km
RCS: 0.047 m2 (small)
Launch date: May 10, 1999
Source: People's Republic of China (PRC)
Launch site: Taiyaun Space Center, China (TSC)

Note: This is SATELLITE DEBRIS
aabbcc
Your satellite tracking list
Your tracking list is empty




NASA's NSSDC Master Catalog

Two Line Element Set (TLE):
1 29845U 99025EP  18145.60940894 +.00000202 +00000-0 +10841-3 0  9993
2 29845 098.6882 180.6442 0082605 223.1562 258.8092 14.21531599588902
Source of the keplerian elements: AFSPC